Weather History for Buffalo, WY

Change the Weather History Date:

Sunday, October 28, 2012

  Actual Average Record
Temperature  
Mean Temperature 44 °F 42 °F  
Max Temperature 61 °F 54 °F 72 °F (2008)
Min Temperature 28 °F 31 °F 10 °F (1991)
Degree Days  
Heating Degree Days 22 23  
Month to date heating degree days 521  
Since 1 July heating degree days 835  
Cooling Degree Days 0 0  
Month to date cooling degree days 0  
Year to date cooling degree days 491  
Moisture  
Dew Point 26 °F    
Average Humidity 54    
Maximum Humidity 72    
Minimum Humidity 32    
Precipitation  
Precipitation 0.00 in 0.02 in 0.55 in (1998)
Month to date precipitation 0.90  
Year to date precipitation 12.48  
Sea Level Pressure  
Sea Level Pressure 29.95 in    
Wind  
Wind Speed 5 mph (South)    
Max Wind Speed 10 mph    
Max Gust Speed -    
Visibility 10 miles    
Events      
T = Trace of Precipitation, MM = Missing Value Source: NWS Daily Summary

Daily Weather History Graph

Daily Weather History Graph

Search for Another Location

Airport:

Trip Planner

Search our weather history database for the weather conditions in past years. The results will help you decide how hot, cold, wet, or windy it might be!

Date:

Astronomy

Oct. 28, 2012 Rise Set
Actual Time 7:39 AM MDT 6:01 PM MDT
Civil Twilight 7:09 AM MDT 6:31 PM MDT
Nautical Twilight 6:35 AM MDT 7:05 PM MDT
Astronomical Twilight 6:01 AM MDT 7:38 PM MDT
Moon 5:20 PM MDT (10/28) 6:34 AM MDT (10/28)
Length of Visible Light 11h 21m
Length of Day
10h 21m
Waxing Gibbous, 99% of the Moon is Illuminated
Oct 28
Waxing Gibbous
Oct 29
Full
Nov 6
Last Quarter
Nov 13
New
Nov 20
First Quarter

Hourly Weather History & Observations

Time (MDT) Temp. Windchill Dew Point Humidity Pressure Visibility Wind Dir Wind Speed Gust Speed Precip Events Conditions
12:53 AM 32.0 °F 25.6 °F 19.0 °F 59% 30.05 in 10.0 mi South 6.9 mph - N/A   Clear
1:53 AM 30.9 °F 23.5 °F 19.9 °F 64% 30.01 in 10.0 mi ESE 8.1 mph - N/A   Scattered Clouds
2:53 AM 30.0 °F - 19.0 °F 64% 30.01 in 10.0 mi Calm Calm - N/A   Clear
3:53 AM 30.9 °F - 19.9 °F 64% 30.00 in 10.0 mi Calm Calm - N/A   Mostly Cloudy
4:53 AM 30.9 °F - 19.9 °F 64% 29.99 in 10.0 mi Calm Calm - N/A   Clear
5:53 AM 30.0 °F 26.5 °F 21.0 °F 69% 29.99 in 10.0 mi South 3.5 mph - N/A   Clear
6:53 AM 28.9 °F 23.9 °F 21.0 °F 72% 30.00 in 10.0 mi South 4.6 mph - N/A   Clear
7:53 AM 33.1 °F - 21.9 °F 64% 29.98 in 10.0 mi Calm Calm - N/A   Overcast
8:53 AM 36.0 °F 33.3 °F 24.1 °F 62% 29.95 in 10.0 mi WSW 3.5 mph - N/A   Mostly Cloudy
9:53 AM 37.9 °F - 25.0 °F 60% 29.95 in 10.0 mi Calm Calm - N/A   Overcast
11:53 AM 48.9 °F - 26.1 °F 41% 29.90 in 10.0 mi SSE 5.8 mph - N/A   Clear
12:53 PM 55.0 °F - 26.1 °F 33% 29.86 in 10.0 mi SE 5.8 mph - N/A   Partly Cloudy
1:53 PM 57.9 °F - 28.9 °F 33% 29.85 in 10.0 mi ESE 5.8 mph - N/A   Clear
2:53 PM 59.0 °F - 28.9 °F 32% 29.86 in 10.0 mi South 3.5 mph - N/A   Scattered Clouds
3:53 PM 59.0 °F - 28.9 °F 32% 29.87 in 10.0 mi Calm Calm - N/A   Partly Cloudy
4:53 PM 57.0 °F - 30.0 °F 36% 29.89 in 10.0 mi SE 5.8 mph - N/A   Clear
5:53 PM 50.0 °F - 32.0 °F 50% 29.93 in 10.0 mi SSE 6.9 mph - N/A   Clear
6:53 PM 48.9 °F - 30.9 °F 50% 29.94 in 10.0 mi South 8.1 mph - N/A   Clear
7:53 PM 45.0 °F 43.5 °F 30.9 °F 58% 29.97 in 10.0 mi West 3.5 mph - N/A   Clear
8:53 PM 44.1 °F 38.6 °F 30.0 °F 58% 29.97 in 10.0 mi WSW 10.4 mph - N/A   Clear
9:53 PM 42.1 °F 37.1 °F 30.0 °F 62% 29.97 in 10.0 mi WSW 8.1 mph - N/A   Clear
10:53 PM 41.0 °F 36.4 °F 30.0 °F 65% 29.94 in 10.0 mi West 6.9 mph - N/A   Clear
11:53 PM 42.1 °F 36.6 °F 28.9 °F 60% 29.93 in 10.0 mi WSW 9.2 mph - N/A   Clear